CQ0XSM-11 Weather Reports


time (UTC)temp
C
wind
direction
speed
KPH
gust
KPH
rain 1hr
cm
rain 24hr
cm
rain mn
cm
humidity
%
barometer
mb
20260507044602 7 315 3.2 8.0 0.00 0.00 0.00 100 990.3
20260507044053 7 311 1.6 4.8 0.00 0.00 0.00 100 990.3
20260507043117 7 266 1.6 4.8 0.00 0.00 0.00 100 990.2
20260507042554 7 12 0.0 6.4 0.00 0.00 0.00 100 990.2
20260507042033 7 331 3.2 6.4 0.00 0.00 0.00 100 990.3
20260507041602 7 315 3.2 4.8 0.00 0.00 0.00 100 990.2
20260507041036 7 291 0.0 4.8 0.00 0.00 0.00 100 990.3
20260507040533 7 315 1.6 4.8 0.00 0.00 0.00 100 990.4
20260507035529 7 294 1.6 6.4 0.00 0.00 0.00 100 990.5
20260507035021 7 295 0.0 4.8 0.00 0.00 0.00 100 990.5
20260507034514 7 291 1.6 4.8 0.00 0.00 0.00 100 990.4
20260507034025 7 274 3.2 6.4 0.00 0.00 0.00 100 990.5
20260507033501 7 270 0.0 14.5 0.00 0.00 0.00 100 990.4
20260507033022 7 315 0.0 1.6 0.00 0.00 0.00 100 990.5
20260507032455 7 283 0.0 3.2 0.00 0.00 0.00 100 990.5
20260507032026 7 315 0.0 1.6 0.00 0.00 0.00 100 990.5
20260507031454 7 235 0.0 1.6 0.00 0.00 0.00 100 990.6
20260507031003 7 270 0.0 3.2 0.00 0.00 0.00 100 990.6
20260507030438 7 324 0.0 1.6 0.00 0.00 0.00 100 990.6
20260507030018 7 286 1.6 3.2 0.00 0.00 0.00 100 990.7
20260507025437 7 266 3.2 4.8 0.00 0.00 0.00 100 990.6
20260507024949 7 313 1.6 3.2 0.00 0.00 0.00 100 990.6
20260507024438 7 314 1.6 1.6 0.00 0.00 0.00 100 990.7
20260507023941 7 301 1.6 4.8 0.00 0.00 0.00 100 990.7
20260507023431 7 287 0.0 4.8 0.00 0.00 0.00 100 990.7
20260507022946 7 315 0.0 4.8 0.00 0.00 0.00 100 990.7
20260507021425 7 315 0.0 4.8 0.00 0.00 0.00 100 990.7
20260507020916 7 281 1.6 3.2 0.00 0.00 0.00 100 990.7
20260507020409 7 312 1.6 9.7 0.00 0.00 0.00 100 990.8
20260507015959 7 273 4.8 6.4 0.00 0.00 0.00 100 990.8
20260507015358 7 289 1.6 4.8 0.00 0.00 0.00 100 990.8
20260507014909 7 315 0.0 4.8 0.00 0.00 0.00 100 990.8
20260507014352 7 306 3.2 3.2 0.00 0.00 0.00 100 990.9
20260507013911 7 303 4.8 4.8 0.00 0.00 0.00 100 991.0
20260507013345 7 288 1.6 4.8 0.00 0.00 0.00 100 991.0
20260507012912 7 267 4.8 4.8 0.00 0.00 0.00 100 990.9
20260507012345 7 270 1.6 3.2 0.00 0.00 0.00 100 990.9
20260507011851 7 315 0.0 8.0 0.00 0.00 0.00 100 991.0
20260507011333 7 305 0.0 3.2 0.00 0.00 0.00 100 991.1
20260507010840 7 313 4.8 4.8 0.00 0.00 0.00 100 991.2
20260507010326 7 315 0.0 4.8 0.00 0.00 0.00 100 991.2
20260507005915 7 318 3.2 6.4 0.00 0.00 0.00 100 991.3
20260507005316 7 285 0.0 3.2 0.00 0.00 0.00 100 991.2
20260507004833 7 310 1.6 3.2 0.00 0.00 0.00 100 991.3
20260507003815 7 309 3.2 6.4 0.00 0.00 0.00 100 991.5
20260507003307 7 322 4.8 6.4 0.00 0.00 0.00 100 991.5
20260507002835 7 319 3.2 6.4 0.00 0.00 0.00 100 991.5
20260507002301 8 316 4.8 8.0 0.00 0.00 0.00 100 991.4
20260507001810 8 310 0.0 6.4 0.00 0.00 0.00 100 991.5
20260507001252 8 315 0.0 4.8 0.00 0.00 0.00 100 991.4
20260507000801 8 296 1.6 4.8 0.00 0.00 0.00 100 991.5
20260507000255 8 325 1.6 9.7 0.00 0.00 0.00 100 991.4
20260506235801 8 294 4.8 6.4 0.00 0.00 0.00 100 991.5
20260506235301 8 13 1.6 8.0 0.00 0.00 0.00 100 991.5
20260506234745 8 281 0.0 6.4 0.00 0.00 0.00 100 991.4
20260506234236 8 320 3.2 8.0 0.00 0.00 0.00 100 991.4
20260506233742 8 308 4.8 11.3 0.00 0.00 0.00 100 991.3
20260506233229 8 319 4.8 11.3 0.00 0.00 0.00 100 991.5
20260506232735 8 292 1.6 4.8 0.00 0.00 0.00 100 991.4
20260506232258 8 315 3.2 4.8 0.00 0.00 0.00 100 991.5
20260506231738 8 316 4.8 6.4 0.00 0.00 0.00 100 991.5
20260506231216 8 294 1.6 6.4 0.00 0.00 0.00 100 991.4
20260506230728 8 311 1.6 14.5 0.00 0.00 0.00 100 991.4
20260506230210 8 321 6.4 9.7 0.00 0.00 0.00 100 991.5
20260506225726 8 274 6.4 12.9 0.00 0.00 0.00 100 991.5
20260506224732 8 313 4.8 12.9 0.00 0.00 0.00 100 991.5
20260506224150 8 316 4.8 11.3 0.00 0.00 0.00 100 991.5
20260506223715 8 304 8.0 11.3 0.00 0.00 0.00 100 991.6
20260506222658 8 295 9.7 20.9 0.00 0.00 0.00 100 991.6
20260506221649 9 323 4.8 14.5 0.00 0.00 0.00 100 991.7
20260506221138 9 301 9.7 17.7 0.00 0.00 0.00 100 991.7
20260506220705 9 305 3.2 12.9 0.00 0.00 0.00 100 991.7
20260506220132 9 323 3.2 9.7 0.00 0.00 0.00 100 991.8
20260506215632 9 324 4.8 9.7 0.00 0.00 0.00 100 991.8
20260506214631 9 331 6.4 11.3 0.00 0.00 0.00 100 991.8
20260506214142 9 316 1.6 12.9 0.00 0.00 0.00 100 991.8
20260506213630 10 300 8.0 12.9 0.00 0.00 0.00 100 991.7
20260506212619 10 306 1.6 8.0 0.00 0.00 0.00 100 991.7
20260506212129 10 309 4.8 9.7 0.00 0.00 0.00 99 991.8
20260506211614 10 297 4.8 9.7 0.00 0.00 0.00 98 991.7
20260506211100 10 327 8.0 11.3 0.00 0.00 0.00 97 991.7
20260506210107 10 308 3.2 11.3 0.00 0.00 0.00 95 991.7
20260506205615 10 319 6.4 14.5 0.00 0.00 0.00 93 991.7
20260506204601 10 290 6.4 8.0 0.00 0.00 0.00 89 991.6
20260506203613 10 311 9.7 9.7 0.00 0.00 0.00 87 991.5
20260506203030 10 327 9.7 12.9 0.00 0.00 0.00 86 991.5
20260506202542 11 302 1.6 16.1 0.00 0.00 0.00 84 991.4
20260506202045 11 315 11.3 12.9 0.00 0.00 0.00 83 991.4
20260506201528 11 306 8.0 12.9 0.00 0.00 0.00 81 991.3
20260506201035 11 317 11.3 12.9 0.00 0.00 0.00 78 991.3
20260506200528 11 314 6.4 8.0 0.00 0.00 0.00 76 991.3
20260506200020 11 310 8.0 11.3 0.00 0.00 0.00 74 991.2
20260506195521 11 307 8.0 11.3 0.00 0.00 0.00 72 991.1
20260506195039 11 315 4.8 9.7 0.00 0.00 0.00 69 991.1
20260506194510 11 294 3.2 17.7 0.00 0.00 0.00 67 991.1
20260506194007 12 315 8.0 11.3 0.00 0.00 0.00 65 991.1
20260506193506 12 326 6.4 11.3 0.00 0.00 0.00 63 991.1
20260506193008 12 317 9.7 12.9 0.00 0.00 0.00 61 991.1
20260506192502 12 334 9.7 17.7 0.00 0.00 0.00 59 991.0
20260506192015 12 334 8.0 14.5 0.00 0.00 0.00 58 990.9
20260506191509 13 307 4.8 9.7 0.00 0.00 0.00 57 990.9
20260506190943 13 314 6.4 12.9 0.00 0.00 0.00 54 990.8
20260506190459 13 320 3.2 16.1 0.00 0.00 0.00 54 990.8
20260506185443 13 313 14.5 17.7 0.00 0.00 0.00 52 990.7
20260506185011 13 317 11.3 16.1 0.00 0.00 0.00 51 990.5
20260506184449 13 297 12.9 14.5 0.00 0.00 0.00 51 990.6
20260506183931 14 314 12.9 20.9 0.00 0.00 0.00 50 990.7
20260506183444 14 311 8.0 16.1 0.00 0.00 0.00 49 990.6
20260506182930 14 311 11.3 20.9 0.00 0.00 0.00 49 990.6
20260506182416 15 292 8.0 20.9 0.00 0.00 0.00 48 990.6
20260506181418 15 297 14.5 17.7 0.00 0.00 0.00 47 990.6
20260506180909 15 282 14.5 22.5 0.00 0.00 0.00 47 990.6
20260506180425 15 301 14.5 25.7 0.00 0.00 0.00 46 990.6
20260506175907 15 323 11.3 25.7 0.00 0.00 0.00 46 990.6
20260506175405 15 311 11.3 22.5 0.00 0.00 0.00 46 990.5
20260506174915 15 306 16.1 27.4 0.00 0.00 0.00 45 990.7
20260506174409 16 316 9.7 20.9 0.00 0.00 0.00 43 990.7
20260506173856 16 297 9.7 24.1 0.00 0.00 0.00 43 990.7
20260506173410 16 331 17.7 17.7 0.00 0.00 0.00 43 990.7
20260506172843 16 316 11.3 17.7 0.00 0.00 0.00 42 990.7
20260506172337 16 349 4.8 25.7 0.00 0.00 0.00 42 990.6
20260506171916 17 317 11.3 19.3 0.00 0.00 0.00 42 990.7
20260506171340 17 321 9.7 12.9 0.00 0.00 0.00 42 990.8
20260506170355 16 302 6.4 27.4 0.00 0.00 0.00 44 990.7
20260506165820 16 296 6.4 19.3 0.00 0.00 0.00 43 990.8
20260506165327 16 320 11.3 14.5 0.00 0.00 0.00 44 990.8
20260506164850 16 278 12.9 22.5 0.00 0.00 0.00 43 990.8
20260506164315 16 304 9.7 17.7 0.00 0.00 0.00 42 990.8
20260506163810 16 263 12.9 22.5 0.00 0.00 0.00 41 990.7
20260506163331 17 315 19.3 19.3 0.00 0.00 0.00 40 990.8
20260506161307 17 313 6.4 19.3 0.00 0.00 0.00 41 990.8
20260506155745 17 292 9.7 16.1 0.00 0.00 0.00 37 990.8
20260506155250 17 307 11.3 14.5 0.00 0.00 0.00 35 990.9
20260506154803 17 284 1.6 12.9 0.00 0.00 0.00 37 990.9
20260506154240 17 319 4.8 14.5 0.00 0.00 0.00 36 990.9
20260506153247 17 282 6.4 14.5 0.00 0.00 0.00 38 990.9
20260506152229 17 338 4.8 12.9 0.00 0.00 0.00 37 991.0
20260506151735 17 313 6.4 12.9 0.00 0.00 0.00 35 991.1
20260506151235 17 322 1.6 9.7 0.00 0.00 0.00 35 991.2
20260506150736 17 126 3.2 9.7 0.00 0.00 0.00 37 991.3
20260506150228 17 355 1.6 4.8 0.00 0.00 0.00 35 991.3
20260506145710 17 359 1.6 11.3 0.00 0.00 0.00 35 991.4
20260506144715 17 315 1.6 14.5 0.00 0.00 0.00 34 991.5
20260506144204 17 142 6.4 12.9 0.00 0.00 0.00 34 991.6
20260506143653 17 315 14.5 17.7 0.00 0.00 0.00 34 991.7
20260506143226 18 339 12.9 12.9 0.00 0.00 0.00 35 991.8
20260506142701 18 313 16.1 16.1 0.00 0.00 0.00 33 991.8
20260506141659 17 15 1.6 16.1 0.00 0.00 0.00 37 991.9
20260506141148 17 302 6.4 11.3 0.00 0.00 0.00 38 992.0
20260506140643 17 315 8.0 9.7 0.00 0.00 0.00 36 992.1
20260506140230 17 91 3.2 17.7 0.00 0.00 0.00 39 992.0
20260506135635 16 315 9.7 16.1 0.00 0.00 0.00 40 992.2
20260506135141 16 301 9.7 9.7 0.00 0.00 0.00 40 992.2
20260506134650 16 269 3.2 16.1 0.00 0.00 0.00 38 992.3
20260506134128 16 312 12.9 16.1 0.00 0.00 0.00 38 992.3
20260506133631 16 280 6.4 16.1 0.00 0.00 0.00 39 992.4
20260506133131 17 271 6.4 12.9 0.00 0.00 0.00 37 992.4
20260506132628 17 303 8.0 12.9 0.00 0.00 0.00 36 992.4
20260506132129 17 347 1.6 12.9 0.00 0.00 0.00 37 992.5
20260506131633 17 287 8.0 14.5 0.00 0.00 0.00 37 992.7
20260506131126 17 343 8.0 14.5 0.00 0.00 0.00 38 992.7
20260506125611 17 291 6.4 16.1 0.00 0.00 0.00 38 992.9
20260506125107 17 306 8.0 11.3 0.00 0.00 0.00 38 992.8
20260506124605 17 143 1.6 6.4 0.00 0.00 0.00 37 993.0
20260506124104 17 337 8.0 12.9 0.00 0.00 0.00 38 993.0
20260506123541 17 327 8.0 8.0 0.00 0.00 0.00 40 993.1
20260506123047 16 318 1.6 11.3 0.00 0.00 0.00 41 993.1
20260506122529 16 324 11.3 16.1 0.00 0.00 0.00 39 993.3
20260506122059 17 328 4.8 8.0 0.00 0.00 0.00 40 993.3
20260506121522 16 335 8.0 8.0 0.00 0.00 0.00 40 993.3
20260506121054 16 81 0.0 9.7 0.00 0.00 0.00 43 993.4
20260506120516 16 348 8.0 11.3 0.00 0.00 0.00 40 993.5
20260506120103 16 271 1.6 6.4 0.00 0.00 0.00 41 993.4
20260506115510 16 142 1.6 8.0 0.00 0.00 0.00 43 993.5
20260506115034 15 320 4.8 11.3 0.00 0.00 0.00 44 993.6
20260506114459 15 291 6.4 12.9 0.00 0.00 0.00 47 993.7
20260506113457 16 326 8.0 11.3 0.00 0.00 0.00 41 993.8
20260506113015 16 92 4.8 6.4 0.00 0.00 0.00 45 993.6
20260506112450 16 248 4.8 8.0 0.00 0.00 0.00 46 993.8
20260506112014 16 325 4.8 12.9 0.00 0.00 0.00 47 993.9
20260506111444 15 312 8.0 12.9 0.00 0.00 0.00 48 994.0
20260506110449 16 90 1.6 4.8 0.00 0.00 0.00 42 994.0
20260506105427 15 195 0.0 8.0 0.00 0.00 0.00 45 994.0
20260506104939 15 331 1.6 12.9 0.00 0.00 0.00 47 994.0
20260506104430 15 321 0.0 3.2 0.00 0.00 0.00 50 994.1
20260506103928 14 135 0.0 3.2 0.00 0.00 0.00 54 994.1
20260506103420 14 315 1.6 6.4 0.00 0.00 0.00 51 994.2
20260506102924 14 295 4.8 12.9 0.00 0.00 0.00 55 994.2
20260506102407 14 326 4.8 8.0 0.00 0.00 0.00 57 994.2
20260506101916 13 273 6.4 12.9 0.00 0.00 0.00 55 994.3
20260506101406 13 258 8.0 11.3 0.00 0.00 0.00 58 994.3
20260506100928 13 281 1.6 9.7 0.00 0.00 0.00 59 994.2
20260506100400 14 319 8.0 9.7 0.00 0.00 0.00 58 994.3
20260506095954 14 183 0.0 9.7 0.00 0.00 0.00 59 994.3
20260506095359 14 329 1.6 6.4 0.00 0.00 0.00 59 994.3
20260506094913 14 335 6.4 9.7 0.00 0.00 0.00 61 994.4
20260506094345 14 193 0.0 9.7 0.00 0.00 0.00 63 994.3
20260506093927 14 329 1.6 4.8 0.00 0.00 0.00 63 994.3
20260506093333 13 131 1.6 4.8 0.00 0.00 0.00 69 994.3
20260506092334 13 312 3.2 8.0 0.00 0.00 0.00 72 994.4
20260506091838 12 359 0.0 6.4 0.00 0.00 0.00 75 994.4
20260506091327 12 310 4.8 14.5 0.00 0.00 0.00 69 994.4
20260506090834 12 347 4.8 8.0 0.00 0.00 0.00 77 994.4
20260506090321 12 351 0.0 6.4 0.00 0.00 0.00 79 994.5
20260506085829 12 265 1.6 11.3 0.00 0.00 0.00 84 994.5
20260506085324 11 291 9.7 12.9 0.00 0.00 0.00 85 994.6
20260506084824 11 302 9.7 9.7 0.00 0.00 0.00 86 994.7
20260506084312 11 315 9.7 9.7 0.00 0.00 0.00 86 994.6
20260506083835 11 318 1.6 8.0 0.00 0.00 0.00 89 994.6
20260506083315 11 286 3.2 11.3 0.00 0.00 0.00 88 994.6
20260506082801 11 275 8.0 12.9 0.00 0.00 0.00 92 994.6
20260506082321 11 289 8.0 19.3 0.00 0.00 0.00 91 994.7
20260506081802 11 269 6.4 8.0 0.00 0.00 0.00 96 994.7
20260506081250 10 319 3.2 8.0 0.00 0.00 0.00 97 994.7
20260506080823 10 327 4.8 9.7 0.00 0.00 0.00 100 994.7
20260506080243 10 328 6.4 16.1 0.00 0.00 0.00 100 994.6
20260506073224 8 289 3.2 3.2 0.00 0.00 0.00 100 994.8
20260506072736 7 270 1.6 3.2 0.00 0.00 0.00 100 994.8
20260506071718 7 315 0.0 1.6 0.00 0.00 0.00 100 994.8
20260506071212 6 315 0.0 0.0 0.00 0.00 0.00 100 994.8
20260506070758 6 290 0.0 0.0 0.00 0.00 0.00 100 994.9
20260506070215 5 90 0.0 0.0 0.00 0.00 0.00 100 994.9
20260506062206 2 225 0.0 0.0 0.00 0.00 0.00 100 994.7
20260506061646 2 225 0.0 0.0 0.00 0.00 0.00 100 994.8
20260506061134 2 45 0.0 0.0 0.00 0.00 0.00 100 994.6
20260506060656 2 45 0.0 0.0 0.00 0.00 0.00 100 994.7
20260506051053 3 270 0.0 1.6 0.00 0.00 0.00 100 994.5
20260506050637 3 98 1.6 1.6 0.00 0.00 0.00 100 994.6
20260506045103 3 123 1.6 1.6 0.00 0.00 0.00 100 994.5